| time (UTC) | temp F | wind direction | speed knots | gust knots | rain 1hr in | rain 24hr in | rain mn in | humidity % | barometer mb |
| 20260902012006 | 68 | 134 | 9.6 | 15.6 | 0.00 | 0.00 | 0.00 | 88 | 1021.2 |
| 20260902011004 | 69 | 135 | 6.1 | 17.4 | 0.00 | 0.00 | 0.00 | 89 | 1021.0 |
| 20260902010003 | 68 | 154 | 6.1 | 17.4 | 0.00 | 0.00 | 0.00 | 91 | 1021.0 |
| 20260902004003 | 71 | 132 | 5.2 | 14.8 | 0.00 | 0.00 | 0.00 | 83 | 1020.7 |
| 20260902002004 | 71 | 152 | 6.1 | 12.2 | 0.00 | 0.00 | 0.00 | 83 | 1020.7 |
| 20260902001003 | 71 | 131 | 8.7 | 13.0 | 0.00 | 0.00 | 0.00 | 84 | 1020.5 |
| 20260902000003 | 72 | 207 | 6.1 | 12.2 | 0.00 | 0.00 | 0.00 | 82 | 1020.5 |
| 20260901235004 | 72 | 166 | 4.3 | 11.3 | 0.00 | 0.00 | 0.00 | 78 | 1020.4 |
| 20260901234004 | 72 | 179 | 1.7 | 13.0 | 0.00 | 0.00 | 0.00 | 79 | 1020.3 |
| 20260901232005 | 71 | 171 | 2.6 | 10.4 | 0.00 | 0.00 | 0.00 | 81 | 1020.2 |
| 20260901231003 | 71 | 161 | 2.6 | 12.2 | 0.00 | 0.00 | 0.00 | 85 | 1020.0 |
| 20260901230004 | 71 | 131 | 5.2 | 13.0 | 0.00 | 0.00 | 0.00 | 86 | 1020.1 |
| 20260901225003 | 72 | 153 | 6.1 | 13.9 | 0.00 | 0.00 | 0.00 | 86 | 1020.4 |
| 20260901224005 | 72 | 182 | 6.1 | 13.0 | 0.00 | 0.00 | 0.00 | 84 | 1020.2 |
| 20260901223004 | 73 | 147 | 5.2 | 13.0 | 0.00 | 0.00 | 0.00 | 84 | 1020.0 |
| 20260901221004 | 73 | 138 | 3.5 | 12.2 | 0.00 | 0.00 | 0.00 | 76 | 1020.2 |
| 20260901215004 | 74 | 188 | 1.7 | 10.4 | 0.00 | 0.00 | 0.00 | 72 | 1020.4 |
| 20260901214004 | 74 | 180 | 3.5 | 11.3 | 0.00 | 0.00 | 0.00 | 72 | 1020.4 |
| 20260901212006 | 75 | 180 | 0.9 | 7.0 | 0.00 | 0.00 | 0.00 | 70 | 1020.6 |
| 20260901211003 | 75 | 164 | 2.6 | 7.0 | 0.00 | 0.00 | 0.00 | 69 | 1020.5 |
| 20260901210003 | 74 | 196 | 4.3 | 7.8 | 0.00 | 0.00 | 0.00 | 69 | 1020.6 |
| 20260901203004 | 73 | 148 | 4.3 | 8.7 | 0.00 | 0.00 | 0.00 | 72 | 1021.0 |
| 20260901202003 | 72 | 203 | 2.6 | 12.2 | 0.00 | 0.00 | 0.00 | 74 | 1021.4 |
| 20260901201004 | 71 | 194 | 3.5 | 13.0 | 0.00 | 0.00 | 0.00 | 76 | 1021.3 |
| 20260901200003 | 72 | 158 | 6.1 | 15.6 | 0.00 | 0.00 | 0.00 | 77 | 1021.5 |
| 20260901195006 | 73 | 188 | 4.3 | 15.6 | 0.00 | 0.00 | 0.00 | 73 | 1021.6 |
| 20260901194004 | 76 | 153 | 7.0 | 13.9 | 0.00 | 0.00 | 0.00 | 72 | 1021.6 |
| 20260901193004 | 77 | 192 | 6.1 | 13.9 | 0.00 | 0.00 | 0.00 | 65 | 1021.6 |
| 20260901192004 | 77 | 139 | 4.3 | 13.0 | 0.00 | 0.00 | 0.00 | 63 | 1021.8 |
| 20260901191005 | 78 | 194 | 2.6 | 12.2 | 0.00 | 0.00 | 0.00 | 62 | 1021.8 |
| 20260901190003 | 78 | 180 | 2.6 | 12.2 | 0.00 | 0.00 | 0.00 | 62 | 1021.9 |
| 20260901185004 | 77 | 194 | 3.5 | 11.3 | 0.00 | 0.00 | 0.00 | 62 | 1022.0 |
| 20260901184004 | 77 | 165 | 5.2 | 10.4 | 0.00 | 0.00 | 0.00 | 59 | 1022.0 |
| 20260901183004 | 77 | 167 | 2.6 | 11.3 | 0.00 | 0.00 | 0.00 | 60 | 1022.3 |
| 20260901182004 | 78 | 178 | 4.3 | 10.4 | 0.00 | 0.00 | 0.00 | 58 | 1022.2 |
| 20260901181003 | 78 | 141 | 4.3 | 7.8 | 0.00 | 0.00 | 0.00 | 62 | 1022.2 |
| 20260901180003 | 77 | 160 | 1.7 | 7.8 | 0.00 | 0.00 | 0.00 | 62 | 1022.2 |
| 20260901175003 | 76 | 136 | 1.7 | 7.0 | 0.00 | 0.00 | 0.00 | 63 | 1022.2 |
| 20260901174003 | 76 | 221 | 2.6 | 7.0 | 0.00 | 0.00 | 0.00 | 65 | 1022.2 |
| 20260901172003 | 74 | 242 | 1.7 | 6.1 | 0.00 | 0.00 | 0.00 | 72 | 1022.4 |
| 20260901171004 | 74 | 309 | 1.7 | 2.6 | 0.00 | 0.00 | 0.00 | 71 | 1022.5 |
| 20260901164003 | 71 | 259 | 0.0 | 5.2 | 0.00 | 0.00 | 0.00 | 76 | 1022.2 |
| 20260901163004 | 71 | 329 | 2.6 | 5.2 | 0.00 | 0.00 | 0.00 | 75 | 1022.3 |
| 20260901162004 | 71 | 4 | 0.0 | 4.3 | 0.00 | 0.00 | 0.00 | 76 | 1022.3 |
| 20260901161004 | 69 | 355 | 1.7 | 4.3 | 0.00 | 0.00 | 0.00 | 79 | 1022.4 |
| 20260901160003 | 70 | 277 | 1.7 | 5.2 | 0.00 | 0.00 | 0.00 | 79 | 1022.4 |
| 20260901155003 | 69 | 43 | 1.7 | 5.2 | 0.00 | 0.00 | 0.00 | 80 | 1022.6 |
| 20260901154004 | 69 | 331 | 1.7 | 6.1 | 0.00 | 0.00 | 0.00 | 81 | 1022.5 |
| 20260901153003 | 70 | 79 | 1.7 | 6.1 | 0.00 | 0.00 | 0.00 | 80 | 1022.5 |
| 20260901152004 | 69 | 351 | 1.7 | 6.1 | 0.00 | 0.00 | 0.00 | 79 | 1022.5 |
| 20260901151004 | 70 | 102 | 2.6 | 5.2 | 0.00 | 0.00 | 0.00 | 78 | 1022.5 |
| 20260901150004 | 70 | 111 | 2.6 | 6.1 | 0.00 | 0.00 | 0.00 | 80 | 1022.5 |
| 20260901144003 | 68 | 36 | 2.6 | 6.1 | 0.00 | 0.00 | 0.00 | 82 | 1022.5 |
| 20260901143003 | 69 | 68 | 2.6 | 5.2 | 0.00 | 0.00 | 0.00 | 82 | 1022.6 |
| 20260901142005 | 67 | 20 | 0.9 | 5.2 | 0.00 | 0.00 | 0.00 | 83 | 1022.7 |
| 20260901141004 | 69 | 113 | 3.5 | 4.3 | 0.00 | 0.00 | 0.00 | 82 | 1022.4 |
| 20260901140003 | 68 | 95 | 1.7 | 4.3 | 0.00 | 0.00 | 0.00 | 83 | 1022.5 |
| 20260901134004 | 67 | 64 | 0.9 | 2.6 | 0.00 | 0.00 | 0.00 | 85 | 1022.4 |
| 20260901133004 | 66 | 63 | 0.9 | 2.6 | 0.00 | 0.00 | 0.00 | 88 | 1022.5 |
| 20260901132004 | 64 | 114 | 0.0 | 2.6 | 0.00 | 0.00 | 0.00 | 91 | 1022.4 |
| 20260901130003 | 63 | 125 | 0.9 | 2.6 | 0.00 | 0.00 | 0.00 | 93 | 1022.4 |
| 20260901125007 | 63 | 91 | 0.9 | 1.7 | 0.00 | 0.00 | 0.00 | 94 | 1022.3 |
| 20260901122004 | 64 | 120 | 0.9 | 1.7 | 0.00 | 0.00 | 0.00 | 94 | 1022.0 |
| 20260901121004 | 63 | 78 | 0.0 | 1.7 | 0.00 | 0.00 | 0.00 | 94 | 1022.0 |
| 20260901120003 | 64 | 104 | 1.7 | 1.7 | 0.00 | 0.00 | 0.00 | 94 | 1021.8 |
| 20260901115003 | 64 | 106 | 0.9 | 1.7 | 0.00 | 0.00 | 0.00 | 94 | 1021.9 |
| 20260901112006 | 64 | 111 | 0.9 | 1.7 | 0.00 | 0.00 | 0.00 | 95 | 1021.8 |
| 20260901111004 | 64 | 164 | 1.7 | 2.6 | 0.00 | 0.00 | 0.00 | 95 | 1021.7 |
| 20260901110004 | 64 | 152 | 0.9 | 2.6 | 0.00 | 0.00 | 0.00 | 95 | 1021.6 |
| 20260901104004 | 64 | 22 | 0.9 | 1.7 | 0.00 | 0.00 | 0.00 | 94 | 1021.8 |
| 20260901103004 | 64 | 53 | 0.9 | 2.6 | 0.00 | 0.00 | 0.00 | 94 | 1021.8 |
| 20260901102005 | 64 | 342 | 0.9 | 4.3 | 0.00 | 0.00 | 0.00 | 94 | 1021.9 |
| 20260901101004 | 65 | 323 | 2.6 | 4.3 | 0.00 | 0.00 | 0.00 | 93 | 1021.8 |
| 20260901100003 | 65 | 359 | 0.9 | 1.7 | 0.00 | 0.00 | 0.00 | 92 | 1022.0 |
| 20260901095003 | 65 | 356 | 0.9 | 1.7 | 0.00 | 0.00 | 0.00 | 92 | 1021.9 |
| 20260901094005 | 65 | 3 | 0.9 | 2.6 | 0.00 | 0.00 | 0.00 | 91 | 1022.0 |
| 20260901093004 | 65 | 302 | 0.0 | 2.6 | 0.00 | 0.00 | 0.00 | 91 | 1021.9 |
| 20260901092004 | 65 | 58 | 0.9 | 2.6 | 0.00 | 0.00 | 0.00 | 90 | 1021.9 |
| 20260901091004 | 65 | 95 | 0.9 | 1.7 | 0.00 | 0.00 | 0.00 | 90 | 1022.0 |
| 20260901090004 | 65 | 298 | 0.0 | 1.7 | 0.00 | 0.00 | 0.00 | 90 | 1022.3 |
| 20260901085003 | 65 | 82 | 0.9 | 2.6 | 0.00 | 0.00 | 0.00 | 91 | 1022.4 |
| 20260901084004 | 65 | 100 | 0.9 | 2.6 | 0.00 | 0.00 | 0.00 | 91 | 1022.4 |
| 20260901083003 | 65 | 90 | 0.9 | 2.6 | 0.00 | 0.00 | 0.00 | 91 | 1022.6 |
| 20260901081004 | 65 | 145 | 0.9 | 2.6 | 0.00 | 0.00 | 0.00 | 91 | 1022.7 |
| 20260901080003 | 65 | 127 | 0.9 | 2.6 | 0.00 | 0.00 | 0.00 | 92 | 1022.8 |
| 20260901075004 | 65 | 98 | 0.9 | 4.3 | 0.00 | 0.00 | 0.00 | 92 | 1022.9 |
| 20260901074004 | 65 | 176 | 0.0 | 4.3 | 0.00 | 0.00 | 0.00 | 92 | 1022.9 |
| 20260901073003 | 65 | 158 | 1.7 | 4.3 | 0.00 | 0.00 | 0.00 | 92 | 1022.8 |
| 20260901072005 | 65 | 262 | 0.9 | 2.6 | 0.00 | 0.00 | 0.00 | 92 | 1022.9 |
| 20260901071003 | 65 | 151 | 0.0 | 2.6 | 0.00 | 0.00 | 0.00 | 92 | 1022.9 |
| 20260901070004 | 65 | 122 | 0.9 | 2.6 | 0.00 | 0.00 | 0.00 | 92 | 1022.9 |
| 20260901065004 | 65 | 122 | 0.9 | 2.6 | 0.00 | 0.00 | 0.00 | 92 | 1022.8 |
| 20260901064004 | 65 | 121 | 1.7 | 2.6 | 0.00 | 0.00 | 0.00 | 92 | 1022.8 |
| 20260901063004 | 64 | 112 | 0.0 | 0.9 | 0.00 | 0.00 | 0.00 | 93 | 1022.6 |
| 20260901062004 | 64 | 345 | 0.0 | 2.6 | 0.00 | 0.00 | 0.00 | 93 | 1022.9 |
| 20260901061007 | 64 | 83 | 0.9 | 4.3 | 0.00 | 0.00 | 0.00 | 93 | 1022.7 |
| 20260901060004 | 64 | 103 | 0.9 | 2.6 | 0.00 | 0.00 | 0.00 | 93 | 1022.7 |
| 20260901054004 | 64 | 244 | 2.6 | 5.2 | 0.00 | 0.00 | 0.00 | 93 | 1022.7 |
| 20260901053004 | 64 | 256 | 2.6 | 5.2 | 0.00 | 0.00 | 0.00 | 92 | 1022.5 |
| 20260901052010 | 66 | 337 | 4.3 | 5.2 | 0.00 | 0.00 | 0.00 | 89 | 1022.2 |
| 20260901051005 | 66 | 277 | 0.0 | 2.6 | 0.00 | 0.00 | 0.00 | 86 | 1022.2 |
| 20260901050004 | 67 | 258 | 0.9 | 8.7 | 0.00 | 0.00 | 0.00 | 86 | 1022.4 |
| 20260901045004 | 67 | 153 | 6.1 | 12.2 | 0.00 | 0.00 | 0.00 | 86 | 1022.5 |
| 20260901044004 | 67 | 114 | 4.3 | 12.2 | 0.00 | 0.00 | 0.00 | 86 | 1022.6 |
| 20260901043004 | 67 | 157 | 4.3 | 11.3 | 0.00 | 0.00 | 0.00 | 85 | 1022.6 |
| 20260901041004 | 67 | 137 | 5.2 | 13.9 | 0.00 | 0.00 | 0.00 | 84 | 1022.6 |
| 20260901040004 | 67 | 145 | 7.0 | 15.6 | 0.00 | 0.00 | 0.00 | 83 | 1022.4 |
| 20260901035006 | 67 | 133 | 3.5 | 15.6 | 0.00 | 0.00 | 0.00 | 85 | 1022.3 |
| 20260901034004 | 68 | 135 | 6.1 | 19.1 | 0.00 | 0.00 | 0.00 | 81 | 1022.4 |
| 20260901033005 | 68 | 133 | 7.0 | 14.8 | 0.00 | 0.00 | 0.00 | 80 | 1022.5 |
| 20260901032005 | 69 | 129 | 4.3 | 13.9 | 0.00 | 0.00 | 0.00 | 78 | 1022.2 |
| 20260901031004 | 69 | 139 | 8.7 | 13.9 | 0.00 | 0.00 | 0.00 | 78 | 1022.1 |
| 20260901030004 | 69 | 141 | 7.8 | 15.6 | 0.00 | 0.00 | 0.00 | 79 | 1021.8 |
| 20260901025004 | 69 | 131 | 11.3 | 15.6 | 0.00 | 0.00 | 0.00 | 78 | 1021.6 |
| 20260901023005 | 69 | 119 | 8.7 | 13.9 | 0.00 | 0.00 | 0.00 | 80 | 1021.2 |
| 20260901022005 | 69 | 126 | 6.1 | 13.9 | 0.00 | 0.00 | 0.00 | 79 | 1021.0 |
| 20260901021004 | 69 | 99 | 6.1 | 17.4 | 0.00 | 0.00 | 0.00 | 78 | 1021.1 |
| 20260901020003 | 69 | 123 | 5.2 | 13.9 | 0.00 | 0.00 | 0.00 | 78 | 1020.9 |
| 20260901015004 | 69 | 87 | 3.5 | 14.8 | 0.00 | 0.00 | 0.00 | 80 | 1020.8 |
| 20260901014004 | 69 | 151 | 7.0 | 14.8 | 0.00 | 0.00 | 0.00 | 79 | 1020.7 |
| 20260901013004 | 69 | 125 | 7.0 | 19.1 | 0.00 | 0.00 | 0.00 | 81 | 1020.7 |